Location: Brompton
(51.4000°N, 0.5333°E)
Time: 18:19:20
(UTC+00:00)

Cosmos 1437 - Pass Details

Date: 11 May 2021
Orbit: 337 x 343 km, 81.2° (Epoch: 21 June)

Event Time Altitude Azimuth Distance (km) Brightness Sun altitude
Exits shadow 21:09:27 - 199° (SSW) 1,563 5.3 -11.7°
Reaches altitude 10° 21:10:01 10° 200° (SSW) 1,324 5.0 -11.8°
Maximum altitude 21:12:52 67° 283° (WNW) 392 2.7 -12.1°
Drops below altitude 10° 21:15:45 10° 8° (N) 1,337 5.9 -12.3°
Sets 21:17:44 0° 11° (N) 2,186 7.0 -12.5°
